$Date,$Time,DM0201B,DM0203B,DM0205B,DM0207B,DM0209B
09/03/98,00:00:01,0,0,0,0,0
09/03/98,00:05:01,61,13,-29,45,959
09/03/98,00:10:01,61,358,-29,47,959
09/03/98,00:15:01,73,358,-28,45,959
09/03/98,00:20:01,57,1,-28,45,959
09/03/98,00:25:01,58,355,-28,47,959
09/03/98,00:30:01,70,1,-28,51,959
09/03/98,00:35:01,50,1,-28,55,959
09/03/98,00:40:01,50,11,-28,53,959
09/03/98,00:45:01,50,11,-28,46,959
09/03/98,00:50:01,40,11,-28,42,959
09/03/98,00:55:01,63,11,-28,42,959
09/03/98,01:00:01,73,1,-28,40,959
09/03/98,01:05:01,60,1,-28,40,959
09/03/98,01:10:01,47,359,-28,38,959
09/03/98,01:15:01,66,3,-28,38,959
09/03/98,01:20:01,50,13,-28,36,959
09/03/98,01:25:01,44,14,-28,36,959
09/03/98,01:30:01,44,14,-28,36,959
09/03/98,01:35:01,57,14,-28,38,959
09/03/98,01:40:01,54,28,-28,40,959
09/03/98,01:45:01,43,13,-28,42,959
09/03/98,01:50:01,53,13,-28,42,959
09/03/98,01:55:01,30,13,-28,42,959
09/03/98,02:00:01,28,13,-28,48,959
09/03/98,02:05:01,28,13,-28,52,959
09/03/98,02:10:01,18,13,-28,50,959
09/03/98,02:15:01,29,13,-28,46,959
09/03/98,02:20:01,29,13,-28,42,959
09/03/98,02:25:01,19,13,-28,40,959
09/03/98,02:30:01,19,13,-29,38,959
09/03/98,02:35:01,30,3,-29,34,959
09/03/98,02:40:01,9,3,-29,30,959
09/03/98,02:45:01,32,3,-29,28,959
09/03/98,02:50:01,21,3,-29,26,959
09/03/98,02:55:01,21,3,-29,24,959
09/03/98,03:00:01,10,355,-29,22,959
09/03/98,03:05:01,10,355,-29,20,959
09/03/98,03:10:01,30,11,-29,18,959
09/03/98,03:15:01,29,5,-29,16,959
09/03/98,03:20:01,27,359,-29,16,959
09/03/98,03:25:01,39,1,-29,16,959
09/03/98,03:30:01,27,357,-29,16,961
09/03/98,03:35:01,16,351,-29,16,961
09/03/98,03:40:01,26,351,-29,14,961
09/03/98,03:45:01,31,340,-29,12,961
09/03/98,03:50:01,15,325,-29,10,961
09/03/98,03:55:01,3,314,-29,10,961
09/03/98,04:00:01,3,279,-29,10,961
09/03/98,04:05:01,3,279,-29,8,961
09/03/98,04:10:01,1,272,-29,8,961
09/03/98,04:15:01,2,272,-29,6,961
09/03/98,04:20:01,2,272,-29,6,961
09/03/98,04:25:01,12,272,-29,6,961
09/03/98,04:30:01,12,272,-29,6,961
09/03/98,04:35:01,12,282,-29,4,961
09/03/98,04:40:01,12,282,-29,4,961
09/03/98,04:45:01,22,269,-29,4,961
09/03/98,04:50:01,10,279,-29,4,961
09/03/98,04:55:01,22,279,-29,2,961
09/03/98,05:00:01,13,263,-29,2,961
09/03/98,05:05:01,15,275,-29,2,961
09/03/98,05:10:01,15,262,-29,2,961
09/03/98,05:15:01,15,273,-29,0,961
09/03/98,05:20:01,26,262,-29,0,961
09/03/98,05:25:01,36,242,-29,0,961
09/03/98,05:30:01,40,242,-29,0,961
09/03/98,05:35:01,36,265,-29,0,961
09/03/98,05:40:01,38,268,-29,0,961
09/03/98,05:45:01,42,257,-29,0,961
09/03/98,05:50:01,24,257,-29,0,961
09/03/98,05:55:01,35,246,-29,0,961
09/03/98,06:00:01,23,267,-29,0,961
09/03/98,06:05:01,35,240,-29,0,961
09/03/98,06:10:01,36,240,-29,0,961
09/03/98,06:15:01,36,262,-29,0,961
09/03/98,06:20:01,29,250,-29,0,961
09/03/98,06:25:01,26,228,-29,0,961
09/03/98,06:30:01,34,242,-29,0,961
09/03/98,06:35:01,24,260,-29,0,961
09/03/98,06:40:01,22,261,-29,0,961
09/03/98,06:45:01,27,233,-29,0,961
09/03/98,06:50:01,41,245,-29,0,961
09/03/98,06:55:01,25,225,-29,0,961
09/03/98,07:00:01,32,225,-29,0,961
09/03/98,07:05:01,25,224,-29,0,961
09/03/98,07:10:01,17,242,-29,0,961
09/03/98,07:15:01,13,255,-29,0,961
09/03/98,07:20:01,22,258,-29,0,961
09/03/98,07:25:01,4,275,-29,0,961
09/03/98,07:30:01,34,217,-29,0,961
09/03/98,07:35:01,1,233,-29,0,961
09/03/98,07:40:01,1,233,-30,0,961
09/03/98,07:45:01,11,298,-29,0,961
09/03/98,07:50:01,22,298,-29,0,961
09/03/98,07:55:01,5,313,-29,0,961
09/03/98,08:00:01,16,287,-29,0,961
09/03/98,08:05:01,16,286,-29,0,961
09/03/98,08:10:01,20,254,-29,0,961
09/03/98,08:15:01,26,277,-29,0,961
09/03/98,08:20:01,7,240,-29,0,961
09/03/98,08:25:01,56,190,-29,0,961
09/03/98,08:30:01,46,185,-29,0,961
09/03/98,08:35:01,60,185,-29,0,961
09/03/98,08:40:01,61,185,-29,0,961
09/03/98,08:45:01,50,185,-29,0,961
09/03/98,08:50:01,64,175,-29,0,961
09/03/98,08:55:01,52,181,-29,0,961
09/03/98,09:00:01,25,181,-29,0,961
09/03/98,09:05:01,56,167,-29,0,961
09/03/98,09:10:01,44,176,-29,0,961
09/03/98,09:15:01,64,174,-29,0,961
09/03/98,09:20:01,63,186,-29,0,961
09/03/98,09:25:01,59,173,-29,0,961
09/03/98,09:30:01,65,183,-29,0,961
09/03/98,09:35:01,53,171,-29,0,961
09/03/98,09:40:01,35,158,-29,0,961
09/03/98,09:45:01,36,199,-29,0,961
09/03/98,09:50:01,32,237,-29,0,961
09/03/98,09:55:01,47,237,-29,0,961
09/03/98,10:00:01,23,201,-29,0,961
09/03/98,10:05:01,4,259,-29,0,961
09/03/98,10:10:01,9,255,-29,0,961
09/03/98,10:15:01,15,230,-29,0,961
09/03/98,10:20:01,54,205,-29,0,961
09/03/98,10:25:01,67,186,-29,0,961
09/03/98,10:30:01,59,211,-29,0,961
09/03/98,10:35:01,57,198,-29,0,961
09/03/98,10:40:01,37,199,-29,0,961
09/03/98,10:45:01,43,199,-29,0,961
09/03/98,10:50:01,66,198,-29,0,961
09/03/98,10:55:01,105,187,-29,0,961
09/03/98,11:00:01,123,171,-29,0,961
09/03/98,11:05:01,110,172,-29,0,961
09/03/98,11:10:01,126,174,-29,0,961
09/03/98,11:15:01,127,179,-29,0,961
09/03/98,11:20:01,147,179,-29,0,961
09/03/98,11:25:01,135,180,-29,0,961
09/03/98,11:30:01,174,176,-29,0,961
09/03/98,11:35:01,148,176,-29,0,961
09/03/98,11:40:01,104,175,-29,0,961
09/03/98,11:45:01,119,185,-29,0,963
09/03/98,11:50:01,116,174,-29,0,963
09/03/98,11:55:01,175,179,-29,0,963
09/03/98,12:00:01,152,179,-29,0,963
09/03/98,12:05:01,143,188,-29,0,963
09/03/98,12:10:01,122,188,-29,0,963
09/03/98,12:15:01,135,157,-29,0,963
09/03/98,12:20:01,116,159,-29,0,963
09/03/98,12:25:01,95,168,-29,0,963
09/03/98,12:30:01,92,160,-29,0,963
09/03/98,12:35:01,54,159,-29,0,963
09/03/98,12:40:01,85,163,-29,0,963
09/03/98,12:45:01,58,162,-29,0,963
09/03/98,12:50:01,92,164,-29,0,963
09/03/98,12:55:01,104,159,-29,0,963
09/03/98,13:00:01,132,159,-28,0,963
09/03/98,13:05:01,115,159,-28,0,963
09/03/98,13:10:01,96,159,-28,0,963
09/03/98,13:15:01,140,172,-28,0,963
09/03/98,13:20:01,106,188,-28,0,963
09/03/98,13:25:01,101,191,-28,0,963
09/03/98,13:30:01,99,177,-28,0,963
09/03/98,13:35:01,78,172,-28,0,963
09/03/98,13:40:01,105,185,-28,0,963
09/03/98,13:45:01,133,184,-28,0,963
09/03/98,13:50:01,108,186,-28,0,963
09/03/98,13:55:01,76,196,-28,0,963
09/03/98,14:00:01,91,187,-28,0,963
09/03/98,14:05:01,98,191,-28,0,963
09/03/98,14:10:01,27,176,-28,0,963
09/03/98,14:15:01,44,189,-29,0,963
09/03/98,14:20:01,28,208,-29,0,963
09/03/98,14:25:01,36,213,-29,0,963
09/03/98,14:30:01,81,186,-29,0,963
09/03/98,14:35:01,113,186,-29,0,963
09/03/98,14:40:01,102,186,-29,0,963
09/03/98,14:45:01,119,175,-29,0,963
09/03/98,14:50:01,111,176,-29,0,963
09/03/98,14:55:01,78,187,-29,0,963
09/03/98,15:00:01,60,187,-29,0,963
09/03/98,15:05:01,81,199,-28,0,963
09/03/98,15:10:01,111,188,-28,0,963
09/03/98,15:15:01,97,189,-28,0,963
09/03/98,15:20:01,73,178,-29,0,963
09/03/98,15:25:01,91,172,-29,0,963
09/03/98,15:30:01,6,43,-29,0,963
09/03/98,15:35:01,1,55,-29,0,963
09/03/98,15:40:01,37,348,-29,0,963
09/03/98,15:45:01,8,359,-29,0,963
09/03/98,15:50:01,23,200,-29,0,963
09/03/98,15:55:01,0,275,-29,0,963
09/03/98,16:00:01,28,216,-29,0,963
09/03/98,16:05:01,18,203,-29,0,963
09/03/98,16:10:01,59,209,-29,0,963
09/03/98,16:15:01,48,197,-28,0,963
09/03/98,16:20:01,46,226,-29,0,963
09/03/98,16:25:01,48,211,-28,0,963
09/03/98,16:30:01,74,193,-28,0,963
09/03/98,16:35:01,25,204,-28,0,963
09/03/98,16:40:01,8,207,-28,0,963
09/03/98,16:45:01,8,295,-29,0,963
09/03/98,16:50:01,8,209,-29,0,963
09/03/98,16:55:01,22,18,-29,0,963
09/03/98,17:00:01,39,7,-29,0,963
09/03/98,17:05:01,55,9,-29,0,963
09/03/98,17:10:01,4,334,-29,0,963
09/03/98,17:15:01,19,184,-29,0,963
09/03/98,17:20:01,7,184,-29,0,963
09/03/98,17:25:01,0,1,-29,0,963
09/03/98,17:30:01,0,23,-29,0,963
09/03/98,17:35:01,0,50,-29,0,963
09/03/98,17:40:01,3,197,-29,0,963
09/03/98,17:45:01,0,10,-29,0,963
09/03/98,17:50:01,15,1,-29,0,963
09/03/98,17:55:01,4,14,-29,0,963
09/03/98,18:00:01,22,3,-29,0,963
09/03/98,18:05:01,7,72,-29,0,963
09/03/98,18:10:01,57,8,-29,0,963
09/03/98,18:15:01,3,277,-29,0,963
09/03/98,18:20:01,8,214,-29,0,963
09/03/98,18:25:01,8,213,-29,0,963
09/03/98,18:30:01,39,35,-29,0,963
09/03/98,18:35:01,2,155,-29,0,963
09/03/98,18:40:01,36,1,-29,0,963
09/03/98,18:45:01,36,11,-29,0,963
09/03/98,18:50:01,15,312,-29,0,963
09/03/98,18:55:01,36,354,-29,0,963
09/03/98,19:00:01,11,1,-29,0,963
09/03/98,19:05:01,31,24,-29,0,963
09/03/98,19:10:01,3,44,-29,0,963
09/03/98,19:15:01,6,173,-29,0,963
09/03/98,19:20:01,6,328,-29,0,963
09/03/98,19:25:01,8,292,-29,0,963
09/03/98,19:30:01,17,335,-29,0,963
09/03/98,19:35:01,16,219,-29,0,963
09/03/98,19:40:01,3,185,-29,0,963
09/03/98,19:45:01,0,9,-29,0,963
09/03/98,19:50:01,7,354,-29,0,963
09/03/98,19:55:01,17,190,-29,0,963
09/03/98,20:00:01,7,233,-29,0,963
09/03/98,20:05:01,1,354,-29,0,963
09/03/98,20:10:01,18,186,-29,0,963
09/03/98,20:15:01,7,196,-29,0,963
09/03/98,20:20:01,7,196,-29,0,963
09/03/98,20:25:01,16,196,-29,0,963
09/03/98,20:30:01,2,186,-29,0,963
09/03/98,20:35:01,13,186,-29,0,963
09/03/98,20:40:01,0,259,-29,0,963
09/03/98,20:45:01,0,259,-29,0,963
09/03/98,20:50:01,51,1,-29,0,963
09/03/98,20:55:01,36,359,-29,0,963
09/03/98,21:00:01,19,349,-29,0,963
09/03/98,21:05:01,51,349,-29,2,963
09/03/98,21:10:01,49,349,-29,2,963
09/03/98,21:15:01,34,348,-29,2,963
09/03/98,21:20:01,32,348,-29,4,963
09/03/98,21:25:01,42,348,-29,4,963
09/03/98,21:30:01,42,348,-29,6,963
09/03/98,21:35:01,33,338,-29,6,963
09/03/98,21:40:01,32,338,-29,8,963
09/03/98,21:45:01,45,338,-29,10,963
09/03/98,21:50:01,34,338,-29,14,963
09/03/98,21:55:01,34,338,-29,14,963
09/03/98,22:00:01,34,338,-29,12,963
09/03/98,22:05:01,34,328,-29,12,963
09/03/98,22:10:01,34,328,-29,12,963
09/03/98,22:15:01,35,330,-29,12,963
09/03/98,22:20:01,40,330,-29,12,963
09/03/98,22:25:01,43,330,-29,12,963
09/03/98,22:30:01,43,330,-29,12,963
09/03/98,22:35:01,56,330,-29,14,963
09/03/98,22:40:01,57,340,-29,14,963
09/03/98,22:45:01,55,340,-29,14,963
09/03/98,22:50:01,54,341,-29,16,965
09/03/98,22:55:01,53,341,-29,18,965
09/03/98,23:00:01,56,347,-29,20,965
09/03/98,23:05:01,35,347,-28,24,965
09/03/98,23:10:01,48,353,-28,24,965
09/03/98,23:15:01,62,354,-28,26,965
09/03/98,23:20:01,62,344,-28,30,965
09/03/98,23:25:01,72,347,-28,30,965
09/03/98,23:30:01,69,352,-28,30,965
09/03/98,23:35:01,72,352,-28,32,965
09/03/98,23:40:01,74,354,-28,32,965
09/03/98,23:45:01,70,354,-28,32,965
09/03/98,23:50:01,74,354,-28,32,965
09/03/98,23:55:01,77,355,-28,34,965
09/04/98,00:00:01,77,353,-28,34,965
